CW0811 Weather Reports


Display with metric or nautical units.
time (UTC)temp
F
wind
direction
speed
MPH
gust
MPH
rain 1hr
in
rain 24hr
in
rain mn
in
humidity
%
barometer
mb
20260510201540 68 294 0.0 6.0 0.00 0.46 0.00 75 1011.3
20260510200107 68 215 2.0 9.0 0.00 0.46 0.00 71 1011.1
20260510194554 69 198 2.0 9.0 0.00 0.60 0.00 70 1011.3
20260510193056 69 0 2.0 10.0 0.00 0.60 0.00 70 1011.3
20260510191552 69 187 3.0 12.0 0.00 0.60 0.00 70 1011.2
20260510190043 70 237 2.0 5.0 0.00 0.60 0.00 67 1011.3
20260510184540 69 177 4.0 10.0 0.00 0.60 0.00 67 1011.4
20260510183054 69 271 3.0 9.0 0.00 0.60 0.00 68 1011.4
20260510181545 71 239 2.0 9.0 0.00 0.60 0.00 65 1011.5
20260510180045 70 190 5.0 10.0 0.00 0.60 0.00 66 1011.5
20260510174544 70 157 3.0 8.0 0.00 0.60 0.00 66 1011.2
20260510173048 68 147 1.0 7.0 0.00 0.60 0.00 70 1011.4
20260510171548 68 0 3.0 8.0 0.00 0.60 0.00 72 1011.6
20260510170050 68 206 4.0 9.0 0.00 0.60 0.00 67 1011.5
20260510164546 67 163 4.0 9.0 0.00 0.60 0.00 70 1011.7
20260510163041 69 146 2.0 9.0 0.00 0.60 0.00 67 1011.8
20260510161540 68 191 3.0 7.0 0.00 0.60 0.00 72 1012.0
20260510160041 67 230 2.0 11.0 0.00 0.60 0.00 72 1011.9
20260510154547 66 199 1.0 9.0 0.00 0.60 0.00 75 1012.1
20260510153045 64 178 3.0 9.0 0.00 0.60 0.00 77 1012.4
20260510151545 63 313 2.0 10.0 0.00 0.60 0.00 77 1012.4
20260510150042 64 169 1.0 7.0 0.00 0.60 0.00 77 1012.4
20260510144540 62 165 2.0 7.0 0.00 0.60 0.00 78 1012.3
20260510143047 61 157 2.0 8.0 0.00 0.60 0.00 80 1012.3
20260510141555 59 106 1.0 5.0 0.00 0.60 0.00 85 1012.3
20260510140044 56 158 0.0 6.0 0.00 0.60 0.00 91 1012.4
20260510134542 56 161 2.0 5.0 0.00 0.60 0.00 91 1012.2
20260510133054 55 189 2.0 5.0 0.00 0.60 0.00 92 1012.2
20260510131540 55 150 0.0 5.0 0.00 0.60 0.00 93 1012.2
20260510130048 55 0 0.0 2.0 0.00 0.60 0.00 94 1012.3
20260510124543 54 155 1.0 3.0 0.00 0.61 0.00 94 1012.2
20260510123056 54 0 0.0 1.0 0.00 0.61 0.00 94 1012.0
20260510121541 54 0 0.0 2.0 0.00 0.61 0.00 95 1011.9
20260510120042 53 0 0.0 2.0 0.00 0.61 0.00 94 1011.9
20260510114552 52 133 0.0 3.0 0.00 0.61 0.00 94 1011.7
20260510113045 52 223 0.0 2.0 0.00 0.61 0.00 94 1011.6
20260510111541 52 223 1.0 3.0 0.00 0.61 0.00 94 1011.6
20260510110042 52 224 1.0 4.0 0.00 0.61 0.00 94 1011.4
20260510104541 52 0 0.0 3.0 0.00 0.62 0.00 94 1011.4
20260510103048 52 0 0.0 6.0 0.00 0.62 0.00 94 1011.4
20260510101544 52 185 1.0 3.0 0.00 0.62 0.00 94 1010.8
20260510100042 52 184 0.0 3.0 0.00 0.62 0.00 94 1011.3
20260510094551 52 177 0.0 2.0 0.00 0.62 0.00 94 1011.2
20260510093041 52 176 1.0 4.0 0.00 0.62 0.00 94 1011.2
20260510091551 52 186 0.0 2.0 0.00 0.62 0.00 94 1011.1
20260510090045 52 0 0.0 2.0 0.00 0.62 0.00 94 1011.4
20260510084542 52 0 0.0 0.0 0.00 0.64 0.00 94 1011.3
20260510083041 52 0 0.0 2.0 0.00 0.64 0.00 94 1011.2
20260510081552 52 0 0.0 0.0 0.00 0.64 0.00 94 1011.1
20260510080046 52 0 0.0 0.0 0.00 0.64 0.00 94 1011.1
20260510074545 52 0 0.0 0.0 0.00 0.64 0.00 94 1011.0
20260510073101 52 186 0.0 1.0 0.00 0.64 0.00 94 1011.0
20260510071548 52 0 0.0 3.0 0.00 0.64 0.00 94 1011.1
20260510070044 53 0 0.0 1.0 0.00 0.64 0.00 94 1011.0
20260510064554 53 0 0.0 1.0 0.00 0.64 0.00 94 1011.0
20260510063045 53 0 0.0 4.0 0.00 0.64 0.00 94 1010.9
20260510061546 53 163 0.0 1.0 0.00 0.64 0.00 94 1010.4
20260510060045 53 0 0.0 2.0 0.00 0.64 0.00 94 1010.5
20260510054542 53 163 0.0 4.0 0.00 0.64 0.00 94 1010.8
20260510053041 53 159 1.0 3.0 0.00 0.64 0.00 94 1010.9
20260510051544 53 0 0.0 3.0 0.00 0.64 0.00 94 1010.6
20260510050051 53 0 0.0 0.0 0.00 0.64 0.00 93 1010.8
20260510044550 53 0 0.0 0.0 0.00 0.64 0.00 93 1010.7
20260510043048 53 0 0.0 0.0 0.00 0.64 0.00 94 1010.8
20260510041543 53 0 0.0 0.0 0.00 0.64 0.00 94 1010.7
20260510040049 53 0 0.0 0.0 0.00 0.64 0.00 94 1010.5
20260510034542 53 0 0.0 5.0 0.00 0.64 0.64 94 1010.8
20260510033043 53 0 0.0 1.0 0.00 0.64 0.64 93 1010.6
20260510031553 53 0 0.0 1.0 0.00 0.64 0.64 93 1010.5
20260510030047 53 0 0.0 0.0 0.00 0.64 0.64 93 1010.6
20260510024545 53 0 0.0 3.0 0.00 0.64 0.64 93 1010.3
20260510023039 53 173 0.0 2.0 0.00 0.64 0.64 93 1010.4
20260510021545 53 0 0.0 1.0 0.00 0.64 0.64 93 1010.4
20260510020042 53 0 0.0 1.0 0.00 0.64 0.64 93 1010.6
20260510014542 53 0 1.0 4.0 0.01 0.64 0.64 93 1010.7
20260510013041 53 147 0.0 4.0 0.02 0.64 0.64 93 1010.7
20260510011540 54 187 1.0 5.0 0.03 0.64 0.64 93 1010.3
20260510010048 54 0 0.0 4.0 0.05 0.64 0.64 93 1010.5
20260510004544 54 194 0.0 3.0 0.06 0.63 0.63 93 1010.2
20260510003047 54 185 0.0 4.0 0.07 0.62 0.62 93 1010.0
20260510001552 54 0 1.0 3.0 0.09 0.61 0.61 93 1009.9
20260510000041 54 0 1.0 6.0 0.09 0.58 0.58 93 1009.8
20260509234547 54 125 0.0 4.0 0.09 0.57 0.57 93 1009.8
20260509233052 53 170 0.0 4.0 0.09 0.55 0.55 93 1010.0
20260509231541 53 213 1.0 6.0 0.08 0.52 0.52 93 1010.3
20260509230049 53 0 0.0 3.0 0.08 0.50 0.50 93 1010.5
20260509224550 52 150 1.0 4.0 0.08 0.48 0.48 92 1010.5
20260509223040 52 0 0.0 2.0 0.09 0.46 0.46 92 1010.6
20260509213042 52 111 0.0 3.0 0.11 0.37 0.37 92 1011.0
20260509211545 52 0 0.0 3.0 0.12 0.35 0.35 91 1010.6
20260509210044 52 101 0.0 3.0 0.13 0.32 0.32 92 1010.5
20260509204547 53 0 0.0 3.0 0.14 0.29 0.29 91 1010.8
20260509203043 53 0 0.0 2.0 0.15 0.26 0.26 91 1010.8